Tracking 32932 objects as of 15-Jan-2026
HD Live streaming from Space Station
objects crossing your sky now

STARLINK-11665

Track STARLINK-11665 now!
10-day predictions
STARLINK-11665 is classified as:


NORAD ID: 63549
Int'l Code: 2025-075B
Perigee: 361.0 km
Apogee: 365.7 km
Inclination: 43.0 °
Period: 91.7 minutes
Semi major axis: 6734 km
RCS: Unknown
Launch date: April 13, 2025
Source: United States (US)
Launch site: AIR FORCE EASTERN TEST RANGE (AFETR)
Your satellite tracking list
Your tracking list is empty




NASA's NSSDC Master Catalog

Two Line Element Set (TLE):
1 63549U 25075B   26014.29025328  .00178016  00000-0  13552-2 0  9991
2 63549  42.9994 121.6482 0003499 290.0793  69.9698 15.70942716 44697
Source of the keplerian elements: AFSPC